TimeEST,TemperatureF,Dew PointF,Humidity,Sea Level PressureIn,VisibilityMPH,Wind Direction,Wind SpeedMPH,Gust SpeedMPH,PrecipitationIn,Events,Conditions,WindDirDegrees,DateUTC
12:01 AM,42.8,41.0,93,30.08,3.0,North,3.5,-,N/A,,Overcast,360,2013-01-16 05:01:00
12:30 AM,42.8,41.0,93,30.05,2.5,NE,3.5,-,N/A,,Overcast,50,2013-01-16 05:30:00
12:46 AM,42.8,42.8,100,30.06,3.0,NNW,4.6,-,N/A,,Overcast,330,2013-01-16 05:46:00
1:38 AM,42.8,41.0,93,30.06,1.8,North,3.5,-,N/A,,Overcast,360,2013-01-16 06:38:00
1:45 AM,42.8,41.0,93,30.05,2.0,North,3.5,-,N/A,,Overcast,10,2013-01-16 06:45:00
1:54 AM,42.1,41.0,96,30.06,2.0,North,3.5,-,N/A,,Overcast,10,2013-01-16 06:54:00
2:54 AM,41.0,41.0,100,30.07,2.0,Variable,3.5,-,N/A,,Overcast,0,2013-01-16 07:54:00
3:11 AM,41.0,41.0,100,30.06,3.0,North,6.9,-,N/A,,Overcast,350,2013-01-16 08:11:00
3:54 AM,41.0,39.9,96,30.05,3.0,Variable,4.6,-,0.01,Rain,Light Rain,0,2013-01-16 08:54:00
4:02 AM,41.0,39.2,93,30.05,2.5,North,5.8,-,0.00,Rain,Light Rain,350,2013-01-16 09:02:00
4:10 AM,39.2,39.2,100,30.05,3.0,NNW,10.4,-,0.00,Rain,Light Rain,340,2013-01-16 09:10:00
4:54 AM,39.0,37.9,96,30.04,5.0,North,8.1,-,0.04,Rain,Light Rain,360,2013-01-16 09:54:00
5:12 AM,39.2,37.4,93,30.02,6.0,NNE,4.6,-,0.00,Rain,Light Rain,20,2013-01-16 10:12:00
5:54 AM,39.0,37.9,96,30.02,10.0,NE,4.6,-,0.01,,Overcast,40,2013-01-16 10:54:00
6:02 AM,39.2,37.4,93,30.02,10.0,NNE,5.8,-,N/A,,Overcast,30,2013-01-16 11:02:00
6:17 AM,39.2,37.4,93,30.02,10.0,NNE,5.8,-,N/A,,Overcast,20,2013-01-16 11:17:00
7:24 AM,39.2,37.4,93,30.03,9.0,NE,3.5,-,0.00,Rain,Light Rain,50,2013-01-16 12:24:00
7:42 AM,39.2,39.2,100,30.03,5.0,NNE,3.5,-,0.01,Rain,Light Rain,20,2013-01-16 12:42:00
7:54 AM,39.9,39.0,97,30.04,10.0,Calm,Calm,-,0.01,Rain,Light Rain,0,2013-01-16 12:54:00
8:54 AM,41.0,39.9,96,30.04,10.0,Calm,Calm,-,0.00,,Overcast,0,2013-01-16 13:54:00
9:34 AM,42.8,39.2,87,30.04,5.0,Calm,Calm,-,0.00,Rain,Light Rain,0,2013-01-16 14:34:00
9:54 AM,42.1,39.9,92,30.06,8.0,Calm,Calm,-,0.01,Rain,Light Rain,0,2013-01-16 14:54:00
10:54 AM,42.1,39.9,92,30.07,6.0,North,6.9,-,0.00,Rain,Light Rain,350,2013-01-16 15:54:00
11:39 AM,42.8,39.2,87,30.06,1.8,Calm,Calm,-,0.03,Rain,Rain,0,2013-01-16 16:39:00
11:47 AM,42.8,39.2,87,30.04,2.0,Calm,Calm,-,0.05,Rain,Light Rain,0,2013-01-16 16:47:00
11:54 AM,42.1,39.9,92,30.04,2.5,East,3.5,-,0.05,Rain,Light Rain,80,2013-01-16 16:54:00
12:20 PM,42.8,41.0,93,30.02,1.2,Calm,Calm,-,0.05,Rain,Heavy Rain,0,2013-01-16 17:20:00
12:37 PM,42.8,41.0,93,30.01,3.0,Calm,Calm,-,0.08,Rain,Light Rain,0,2013-01-16 17:37:00
12:50 PM,42.8,42.8,100,30.01,7.0,Calm,Calm,-,0.08,Rain,Light Rain,0,2013-01-16 17:50:00
12:54 PM,43.0,41.0,93,30.01,9.0,Calm,Calm,-,0.09,Rain,Light Rain,0,2013-01-16 17:54:00
1:54 PM,45.0,43.0,93,29.97,10.0,ESE,4.6,-,0.00,,Overcast,120,2013-01-16 18:54:00
3:54 PM,48.0,46.9,96,29.98,10.0,South,4.6,-,0.00,,Overcast,170,2013-01-16 20:54:00
4:54 PM,50.0,48.0,93,29.99,10.0,West,4.6,-,N/A,,Overcast,270,2013-01-16 21:54:00
5:40 PM,50.0,48.2,94,29.99,10.0,Calm,Calm,-,N/A,,Overcast,0,2013-01-16 22:40:00
5:54 PM,50.0,48.0,93,29.99,10.0,Calm,Calm,-,N/A,,Overcast,0,2013-01-16 22:54:00
6:45 PM,48.2,48.2,100,29.99,10.0,Calm,Calm,-,N/A,,Overcast,0,2013-01-16 23:45:00
6:54 PM,48.9,48.0,97,30.00,10.0,Calm,Calm,-,N/A,,Overcast,0,2013-01-16 23:54:00
7:54 PM,48.9,48.0,97,29.99,9.0,Calm,Calm,-,N/A,,Overcast,0,2013-01-17 00:54:00
8:51 PM,48.2,48.2,100,30.00,2.0,Calm,Calm,-,N/A,,Overcast,0,2013-01-17 01:51:00
8:54 PM,48.9,48.0,97,30.00,2.0,Calm,Calm,-,N/A,,Overcast,0,2013-01-17 01:54:00
9:03 PM,48.2,48.2,100,29.99,1.5,Calm,Calm,-,N/A,,Overcast,0,2013-01-17 02:03:00
9:18 PM,48.2,48.2,100,29.99,2.5,Calm,Calm,-,0.00,Rain,Light Rain,0,2013-01-17 02:18:00
9:32 PM,48.2,48.2,100,29.99,1.5,Calm,Calm,-,0.00,,Overcast,0,2013-01-17 02:32:00
9:47 PM,48.2,48.2,100,29.98,2.5,Calm,Calm,-,0.00,,Overcast,0,2013-01-17 02:47:00
9:54 PM,48.9,48.0,97,29.99,3.0,Calm,Calm,-,0.00,Rain,Light Rain,0,2013-01-17 02:54:00
10:54 PM,48.9,48.0,97,29.96,5.0,Calm,Calm,-,0.00,,Overcast,0,2013-01-17 03:54:00
11:30 PM,50.0,48.2,94,29.96,4.0,Calm,Calm,-,0.01,Rain,Light Rain,0,2013-01-17 04:30:00
11:54 PM,50.0,48.9,96,29.97,4.0,Calm,Calm,-,0.02,Rain,Light Rain,0,2013-01-17 04:54:00